Weather History for Keahole Point, HI

Change the Weather History Date:

Sunday, November 11, 2012

  Actual Average Record
Temperature  
Mean Temperature 78 °F -  
Max Temperature 84 °F 82 °F 90 °F (1985)
Min Temperature 71 °F 70 °F 65 °F (1993)
Cooling Degree Days 12    
Growing Degree Days 28 (Base 50)    
Moisture  
Dew Point 62 °F    
Average Humidity 59    
Maximum Humidity 71    
Minimum Humidity 49    
Precipitation  
Precipitation 0.00 in - - ()
Sea Level Pressure  
Sea Level Pressure 29.98 in    
Wind  
Wind Speed 7 mph (SE)    
Max Wind Speed 13 mph    
Max Gust Speed -    
Visibility 10 miles    
Events Rain    
Averages and records for this station are not official NWS values.
T = Trace of Precipitation, MM = Missing Value Source: NWS Daily Summary

Daily Weather History Graph

Daily Weather History Graph

Search for Another Location

Airport:

Trip Planner

Search our weather history database for the weather conditions in past years. The results will help you decide how hot, cold, wet, or windy it might be!

Date:

Astronomy

Nov. 11, 2012 Rise Set
Actual Time 6:30 AM HST 5:45 PM HST
Civil Twilight 6:07 AM HST 6:08 PM HST
Nautical Twilight 5:41 AM HST 6:35 PM HST
Astronomical Twilight 5:14 AM HST 7:01 PM HST
Moon 4:12 AM HST (11/11) 4:05 PM HST (11/11)
Length of Visible Light 12h 00m
Length of Day
11h 14m
Waning Crescent, 6% of the Moon is Illuminated
Nov 11
Waning Crescent
Nov 13
New
Nov 20
First Quarter
Nov 28
Full
Dec 6
Last Quarter

Hourly Weather History & Observations

Time (HST) Temp. Heat Index Dew Point Humidity Pressure Visibility Wind Dir Wind Speed Gust Speed Precip Events Conditions
12:53 AM 73.0 °F - 62.1 °F 68% 29.97 in 10.0 mi North 5.8 mph - N/A   Clear
1:53 AM 73.9 °F - 59.0 °F 59% 29.96 in 10.0 mi NE 10.4 mph - N/A   Clear
2:53 AM 75.0 °F - 59.0 °F 57% 29.95 in 10.0 mi ESE 5.8 mph - N/A   Clear
3:53 AM 71.1 °F - 59.0 °F 66% 29.95 in 10.0 mi Calm Calm - N/A   Clear
4:53 AM 75.0 °F - 59.0 °F 57% 29.96 in 10.0 mi Variable 5.8 mph - N/A   Clear
5:53 AM 72.0 °F - 55.9 °F 57% 29.98 in 10.0 mi ENE 4.6 mph - N/A   Clear
6:53 AM 72.0 °F - 59.0 °F 64% 30.00 in 10.0 mi ENE 3.5 mph - N/A   Clear
7:53 AM 77.0 °F - 57.0 °F 50% 30.01 in 10.0 mi NNW 3.5 mph - N/A   Clear
8:53 AM 80.1 °F 81.1 °F 61.0 °F 52% 30.01 in 10.0 mi Variable 4.6 mph - N/A   Clear
9:53 AM 82.0 °F 83.0 °F 62.1 °F 51% 30.01 in 10.0 mi SSW 8.1 mph - N/A   Clear
10:53 AM 82.9 °F 83.7 °F 62.1 °F 49% 30.01 in 10.0 mi SW 8.1 mph - N/A   Clear
11:53 AM 82.9 °F 84.0 °F 63.0 °F 51% 29.99 in 10.0 mi South 9.2 mph - N/A   Partly Cloudy
12:53 PM 84.0 °F 85.4 °F 64.0 °F 51% 29.96 in 10.0 mi SSW 12.7 mph - N/A   Mostly Cloudy
1:53 PM 82.0 °F 83.8 °F 64.9 °F 56% 29.94 in 10.0 mi SSW 10.4 mph - N/A   Overcast
2:53 PM 81.0 °F 82.7 °F 64.9 °F 58% 29.94 in 10.0 mi SSW 10.4 mph - N/A   Overcast
3:53 PM 81.0 °F 82.5 °F 64.0 °F 56% 29.95 in 10.0 mi SW 8.1 mph - N/A   Overcast
4:53 PM 80.1 °F 81.7 °F 64.0 °F 58% 29.96 in 10.0 mi West 4.6 mph - 0.00 in   Overcast
5:53 PM 77.0 °F - 66.9 °F 71% 29.97 in 10.0 mi NE 3.5 mph - 0.00 in Rain Light Rain
6:53 PM 75.9 °F - 64.0 °F 67% 29.99 in 10.0 mi NNE 4.6 mph - 0.00 in   Partly Cloudy
7:53 PM 73.9 °F - 62.1 °F 66% 30.00 in 10.0 mi ENE 3.5 mph - N/A   Clear
8:53 PM 75.0 °F - 62.1 °F 64% 30.00 in 10.0 mi ESE 11.5 mph - N/A   Clear
9:53 PM 75.0 °F - 61.0 °F 62% 30.01 in 10.0 mi SE 9.2 mph - N/A   Clear
10:53 PM 73.9 °F - 61.0 °F 64% 30.03 in 10.0 mi ESE 9.2 mph - N/A   Clear
11:53 PM 73.9 °F - 61.0 °F 64% 30.03 in 10.0 mi East 6.9 mph - N/A   Clear